Location: Newport
(44.6370°N, 124.0520°W)
Time: 03:21:32
(UTC-08:00)

Vanguard 1 Rocket - All Passes

Search period start: 13 December 2017 00:00
Search period end: 23 December 2017 00:00
Orbit: 656 x 4222 km, 34.3° (Epoch: 13 December)

Date Brightness Start Highest point End Pass type
(mag) Time Alt. Az. Time Alt. Az. Time Alt. Az.
13 Dec - 01:15:02 10° W 01:30:21 21° SW 01:46:19 10° S visible
13 Dec - 16:42:36 10° SSW 16:51:06 38° SSE 17:06:18 10° E visible
13 Dec - 19:05:34 10° WSW 19:17:50 59° S 19:40:05 10° ESE visible
13 Dec - 21:31:00 10° W 21:47:24 53° SSW 22:11:45 10° SE visible
13 Dec - 23:59:43 10° W 00:17:12 31° SW 00:37:21 10° SSE visible
14 Dec - 15:33:51 10° S 15:40:21 24° SE 15:50:34 10° E daylight
14 Dec - 17:55:14 10° WSW 18:05:22 53° SSE 18:24:30 10° E visible
14 Dec - 20:19:36 10° W 20:33:43 57° S 20:57:29 10° ESE visible
14 Dec - 22:46:25 10° W 23:03:37 40° SSW 23:26:10 10° SSE visible
15 Dec - 01:20:36 10° W 01:32:18 16° SW 01:44:37 10° SSW visible
15 Dec - 14:27:29 10° SSE 14:30:12 12° SE 14:33:24 10° ESE daylight
15 Dec - 16:45:25 10° SW 16:53:43 42° SSE 17:08:58 10° E visible
15 Dec - 19:08:44 10° WSW 19:20:37 58° S 19:42:23 10° ESE visible
15 Dec - 21:34:14 10° W 21:49:56 47° SSW 22:13:25 10° SE visible
16 Dec - 00:03:46 10° W 00:19:19 25° SW 00:37:25 10° S visible
16 Dec - 15:36:17 10° SSW 15:42:51 28° SE 15:53:38 10° E daylight
16 Dec - 17:58:19 10° WSW 18:08:09 54° S 18:26:57 10° E visible
16 Dec - 20:22:49 10° W 20:36:27 53° SSW 20:59:26 10° SE visible
16 Dec - 22:49:58 10° W 23:05:58 34° SSW 23:27:00 10° SSE visible
17 Dec - 01:30:28 10° WSW 01:34:22 11° SW 01:38:19 10° SW night (unlit)
17 Dec - 14:28:32 10° SSE 14:32:35 15° SE 14:37:57 10° ESE daylight
17 Dec - 16:48:23 10° SW 16:56:28 45° SSE 17:11:36 10° E visible
17 Dec - 19:11:57 10° WSW 19:23:26 56° S 19:44:35 10° ESE visible
17 Dec - 21:37:36 10° W 21:52:29 42° SSW 22:14:45 10° SE visible
18 Dec - 00:08:33 10° W 00:21:30 19° SW 00:36:29 10° S visible
18 Dec - 15:38:59 10° SSW 15:45:29 32° SSE 15:56:34 10° E daylight
18 Dec - 18:01:31 10° WSW 18:11:02 54° S 18:29:20 10° ESE visible
18 Dec - 20:26:06 10° W 20:39:11 48° SSW 21:01:10 10° SE visible
18 Dec - 22:53:50 10° W 23:08:20 28° SW 23:27:18 10° S visible
19 Dec - 14:30:31 10° S 14:35:06 19° SE 14:41:38 10° E daylight
19 Dec - 16:51:29 10° SW 16:59:19 47° SSE 17:14:10 10° E visible
19 Dec - 19:15:13 10° W 19:26:18 52° S 19:46:38 10° ESE visible
19 Dec - 21:41:08 10° W 21:55:04 35° SSW 22:15:43 10° SSE visible
20 Dec - 00:15:02 10° WSW 00:23:48 14° SW 00:33:34 10° SSW visible
20 Dec - 15:41:53 10° SW 15:48:15 36° SSE 15:59:23 10° E daylight
20 Dec - 18:04:45 10° WSW 18:13:58 53° S 18:31:39 10° ESE visible
20 Dec - 20:29:30 10° W 20:41:56 42° SSW 21:02:37 10° SE visible
20 Dec - 22:58:15 10° W 23:10:48 22° SW 23:26:47 10° S visible
21 Dec - 14:32:56 10° SSW 14:37:45 23° SE 14:44:57 10° E daylight
21 Dec - 16:54:38 10° WSW 17:02:15 48° S 17:16:42 10° ESE visible
21 Dec - 19:18:32 10° W 19:29:11 47° SSW 19:48:30 10° SE visible
21 Dec - 21:44:56 10° W 21:57:42 29° SSW 22:16:11 10° SSE visible
22 Dec - 13:26:04 10° SSE 13:27:39 11° SE 13:29:25 10° ESE daylight
22 Dec - 15:44:54 10° SW 15:51:07 39° SSE 16:02:09 10° E daylight
22 Dec - 18:08:03 10° WSW 18:16:56 50° S 18:33:51 10° ESE visible
22 Dec - 20:33:03 10° W 20:44:44 36° SSW 21:03:45 10° SSE visible
22 Dec - 23:03:46 10° WSW 23:13:19 16° SW 23:24:54 10° SSW visible
